FW4331 Weather Reports


time (UTC)temp
F
wind
direction
speed
knots
gust
knots
rain 1hr
in
rain 24hr
in
rain mn
in
humidity
%
barometer
mb
20260502163033 56 43 3.5 10.4 0.00 0.00 0.00 31 1013.0
20260502161531 54 60 0.0 6.1 0.00 0.00 0.00 35 1013.2
20260502151521 53 284 3.5 8.7 0.00 0.00 0.00 38 1013.4
20260502130104 48 2 7.8 16.5 0.00 0.00 0.00 47 1013.2
20260502123053 47 32 5.2 11.3 0.00 0.00 0.00 48 1013.1
20260502121551 47 341 6.1 12.2 0.00 0.00 0.00 48 1013.3
20260502114549 47 19 0.0 4.3 0.00 0.00 0.00 51 1013.3
20260502113043 47 305 0.9 6.1 0.00 0.00 0.00 51 1013.1
20260502111541 47 20 0.9 9.6 0.00 0.00 0.00 51 1013.2
20260502110040 46 331 4.3 10.4 0.00 0.00 0.00 50 1013.1
20260502104536 47 356 2.6 7.8 0.00 0.00 0.00 50 1013.0
20260502103029 47 11 4.3 12.2 0.00 0.00 0.00 49 1012.8
20260502101532 47 278 1.7 13.9 0.00 0.00 0.00 49 1012.7
20260502091507 49 356 2.6 11.3 0.00 0.00 0.00 48 1012.1
20260502070037 54 35 1.7 7.8 0.00 0.00 0.00 48 1011.5
20260502064548 54 299 0.0 5.2 0.00 0.00 0.00 48 1011.2
20260502063034 54 351 1.7 6.1 0.00 0.00 0.00 48 1011.3
20260502061524 54 13 2.6 11.3 0.00 0.00 0.00 47 1011.4
20260502060020 55 6 0.9 6.1 0.00 0.00 0.00 47 1011.5
20260502054515 55 14 0.0 4.3 0.00 0.00 0.00 46 1011.7
20260502053013 55 20 1.7 8.7 0.00 0.00 0.00 46 1011.7
20260502051509 55 31 0.0 7.0 0.00 0.00 0.00 46 1011.7
20260502050020 55 51 1.7 4.3 0.00 0.00 0.00 46 1011.9
20260502044508 56 17 0.0 2.6 0.00 0.00 0.00 47 1011.8
20260502043003 56 7 0.0 0.9 0.00 0.00 0.00 47 1011.9
20260502041601 56 50 0.0 5.2 0.00 0.00 0.00 47 1011.7
20260502040106 56 8 2.6 7.8 0.00 0.00 0.00 46 1011.4
20260502034556 57 37 4.3 11.3 0.00 0.00 0.00 45 1011.2
20260502033052 57 292 2.6 10.4 0.00 0.00 0.00 46 1011.0
20260502031602 58 12 0.9 6.1 0.00 0.00 0.00 48 1010.8
20260502030050 57 350 0.0 0.9 0.00 0.00 0.00 50 1010.6
20260502024547 58 216 0.0 0.0 0.00 0.00 0.00 47 1010.2
20260502023052 58 224 0.0 1.7 0.00 0.00 0.00 44 1010.0
20260502021544 59 219 0.0 4.3 0.00 0.00 0.00 43 1010.2
20260502020056 59 195 0.0 2.6 0.00 0.00 0.00 41 1010.2
20260502014548 59 311 0.0 5.2 0.00 0.00 0.00 39 1010.4
20260502013035 59 344 0.0 0.9 0.00 0.00 0.00 40 1010.3
20260502011534 60 168 0.0 0.0 0.00 0.00 0.00 38 1009.6
20260502010034 60 212 0.0 0.9 0.00 0.00 0.00 33 1009.0
20260502004533 61 221 0.0 1.7 0.00 0.00 0.00 33 1008.7
20260502003028 61 200 0.0 3.5 0.00 0.00 0.00 32 1008.5
20260502001540 61 157 0.0 2.6 0.00 0.00 0.00 31 1008.4
20260502000024 62 189 0.0 2.6 0.00 0.00 0.00 30 1008.4
20260501234522 63 157 0.0 2.6 0.00 0.00 0.00 29 1008.4
20260501233020 64 176 0.0 5.2 0.00 0.00 0.00 28 1008.2
20260501231518 64 185 0.0 5.2 0.00 0.00 0.00 27 1008.1
20260501230016 65 191 0.9 7.0 0.00 0.00 0.00 26 1008.2
20260501224512 65 227 1.7 8.7 0.00 0.00 0.00 26 1008.3
20260501223016 66 212 4.3 9.6 0.00 0.00 0.00 24 1008.5
20260501221509 66 236 3.5 8.7 0.00 0.00 0.00 23 1008.7
20260501220107 68 197 4.3 13.0 0.00 0.00 0.00 22 1008.8
20260501214502 68 208 4.3 10.4 0.00 0.00 0.00 22 1008.7
20260501213119 68 211 3.5 10.4 0.00 0.00 0.00 23 1008.7
20260501211558 68 195 4.3 13.0 0.00 0.00 0.00 23 1008.8
20260501210059 68 190 4.3 8.7 0.00 0.00 0.00 23 1008.9
20260501204553 67 153 3.5 10.4 0.00 0.00 0.00 21 1009.0
20260501203049 68 265 5.2 12.2 0.00 0.00 0.00 21 1009.2
20260501201545 67 212 1.7 11.3 0.00 0.00 0.00 20 1009.4
20260501200041 67 176 4.3 13.0 0.00 0.00 0.00 23 1009.8
20260501200012 67 152 3.5 13.0 0.00 0.00 0.00 23 1009.8
20260501194537 67 243 1.7 9.6 0.00 0.00 0.00 22 1009.8
20260501193033 66 263 4.3 10.4 0.00 0.00 0.00 25 1010.1
20260501191530 68 247 1.7 9.6 0.00 0.00 0.00 21 1010.4
20260501190025 66 219 4.3 11.3 0.00 0.00 0.00 23 1010.6
20260501184518 65 236 5.2 11.3 0.00 0.00 0.00 24 1010.9
20260501183017 65 263 2.6 9.6 0.00 0.00 0.00 24 1011.1
20260501181521 65 203 2.6 9.6 0.00 0.00 0.00 25 1011.2
20260501180010 64 191 1.7 7.0 0.00 0.00 0.00 26 1011.4